Location: Unspecified
(42.9300°N, 71.1866°W)
Time: 09:53:55
(UTC-05:00)

ISS - Visible Passes

Search period start: 18 December 2017 00:00
Search period end: 28 December 2017 00:00
Orbit: 402 x 406 km, 51.6° (Epoch: 19 December)

Date Brightness Start Highest point End Pass type
(mag) Time Alt. Az. Time Alt. Az. Time Alt. Az.
18 Dec -0.7 17:09:17 10° W 17:11:36 18° SW 17:13:53 10° S visible
25 Dec -0.6 06:12:37 10° S 06:14:45 16° SE 06:16:54 10° E visible
27 Dec -2.2 06:03:13 10° SSW 06:06:16 36° SE 06:09:19 10° ENE visible
